Temperature
16 16 16 16 19 20 20 20 19 19 18 17 16 17 19 19 19 18 14 14 14 14 13 13 13 13 14 14 14 14 14 14 14 14 14 14 14 14 14 14 14 14 14 14 14 14 14 14 14
15 16 16 17 19 20 20 20 19 18 17 15 15 16 17 17 14 13 14 14 14 13 13 13 13 13 14 14 14 14 13 14 14 14 14 14 14 14 14 14 14 14 14 14 14 14 14 14 14
15 15 16 18 19 20 20 19 19 17 14 15 15 15 16 15 13 13 13 13 13 13 13 13 13 13 13 13 13 13 13 13 13 13 14 14 14 14 13 13 14 14 14 14 13 14 14 14 14
14 15 16 18 18 18 19 18 17 16 14 14 15 15 13 12 12 13 13 13 13 13 12 13 13 13 13 13 13 13 13 13 13 13 13 13 13 13 13 13 13 13 14 13 13 13 13 13 14
14 16 17 17 18 18 17 17 15 17 16 14 14 16 14 12 13 13 13 13 12 12 12 12 12 12 13 13 13 13 13 13 13 13 13 13 13 13 13 13 13 13 13 13 13 13 13 13 13
14 16 17 18 18 17 16 15 15 16 15 14 14 15 13 12 12 12 12 12 12 12 12 12 12 12 12 12 12 12 13 13 13 13 13 13 13 13 13 13 13 13 13 13 13 13 13 13 13
15 16 17 17 17 17 16 14 14 15 15 14 13 14 12 11 12 12 11 11 11 11 11 11 11 12 12 12 12 12 12 12 12 13 13 13 13 13 13 13 13 13 13 13 13 13 13 13 13
13 16 16 16 16 16 15 13 12 13 14 12 12 14 13 11 11 11 11 11 11 11 11 11 11 11 11 12 12 12 12 12 12 12 12 12 12 12 12 12 12 13 12 12 12 12 12 12 12
12 15 15 16 16 16 13 13 11 10 11 10 10 11 10 11 11 10 10 10 10 10 11 11 11 11 11 11 11 11 12 12 12 12 12 12 12 12 12 12 12 12 12 12 12 12 12 12 12
12 14 15 15 15 14 13 12 12 11 11 10 9 9 10 10 10 10 10 10 10 10 10 10 10 11 11 11 11 11 11 11 11 11 11 11 11 12 12 12 12 12 12 12 12 12 12 12 11
12 13 13 12 12 12 12 11 11 12 12 11 10 9 9 9 9 9 9 9 10 10 10 10 10 10 10 10 10 10 11 11 11 11 11 11 11 11 11 11 11 11 11 11 11 11 11 11 11
11 11 11 11 9 10 10 10 10 10 11 9 9 9 9 9 9 9 9 9 9 9 9 10 10 10 10 10 10 10 10 10 10 10 10 10 10 10 10 11 11 11 11 11 11 11 11 11 11
11 10 9 9 8 8 9 9 9 8 8 8 8 8 8 8 8 8 8 8 8 9 9 9 9 9 9 9 9 9 10 10 10 10 10 10 10 10 10 10 10 10 10 10 10 10 10 10 10
10 9 9 8 8 8 8 8 8 8 7 7 7 7 8 8 8 7 7 8 8 8 8 9 9 9 9 9 9 9 9 9 9 10 10 10 10 10 10 10 10 10 10 10 10 10 10 10 10
8 9 9 9 8 8 8 9 8 8 7 7 6 6 7 7 7 7 7 7 8 8 8 8 8 8 8 8 8 8 8 8 9 9 9 9 9 9 9 9 9 9 9 9 9 9 9 9 9
9 10 10 9 8 8 9 10 9 7 6 6 6 6 6 6 6 6 6 7 7 7 7 8 8 8 8 8 8 8 8 8 8 8 8 8 8 9 9 9 9 9 9 9 9 9 9 9 9
9 10 10 10 8 8 9 9 9 6 6 6 6 5 5 5 5 5 6 6 6 6 7 7 7 7 7 7 7 7 7 7 7 8 8 8 8 8 8 8 8 8 8 8 8 8 8 8 8
9 10 9 9 8 7 8 8 8 6 5 6 5 5 4 4 5 5 5 5 5 6 6 6 7 6 6 6 6 6 6 7 7 7 7 7 7 8 8 8 8 8 8 8 8 8 8 8 8
8 8 8 8 7 7 7 7 8 6 5 5 5 5 4 4 4 4 4 5 5 5 5 6 6 6 6 6 6 6 6 6 6 6 6 6 7 7 7 7 7 7 7 7 7 7 7 7 7
7 7 7 7 6 6 6 7 7 6 5 5 5 4 4 3 3 3 3 4 4 4 5 5 5 5 5 5 5 5 6 6 6 6 6 6 6 6 6 6 7 7 6 6 6 7 7 6 6
6 6 6 6 6 5 6 7 7 6 5 4 4 3 3 3 2 2 3 3 3 4 4 4 5 5 5 5 5 5 5 5 5 5 5 5 5 6 6 6 6 6 6 6 6 6 6 6 6
5 5 5 5 5 6 6 7 7 6 5 4 4 3 2 2 2 2 2 2 3 3 3 4 4 4 4 4 4 4 4 4 4 5 5 5 5 5 5 5 5 5 5 5 5 6 6 5 5
4 4 4 4 4 5 5 5 7 5 5 4 4 3 2 1 1 1 1 2 2 3 3 3 3 4 3 3 3 3 3 3 4 4 4 4 4 4 4 4 4 5 5 5 5 5 5 5 5
3 3 3 4 4 4 4 5 7 5 4 4 3 2 1 1 0 1 1 1 1 2 2 2 3 3 3 3 3 3 3 3 3 3 3 4 4 4 4 4 4 4 4 4 4 4 4 4 4
3 3 4 5 5 5 4 4 5 3 2 2 2 1 0 -0 -0 -0 0 0 1 1 1 1 2 2 2 2 2 2 2 3 3 3 3 3 3 3 3 3 3 4 4 4 3 3 3 3 3
2 3 4 4 5 6 3 4 4 1 1 -0 -0 -0 -1 -1 -1 -1 -1 -0 0 1 1 1 1 1 2 2 2 2 2 2 2 2 3 3 3 3 3 3 3 3 3 3 3 3 3 3 3
2 2 2 2 2 3 4 4 3 1 0 -0 -1 -1 -1 -1 -1 -1 -1 -1 -0 -0 0 0 1 1 1 1 1 1 1 1 2 2 2 2 2 2 2 2 2 2 3 3 2 2 2 2 2
1 1 1 2 3 4 4 4 4 1 1 0 -1 -1 -2 -2 -2 -2 -1 -1 -1 -1 -0 -0 0 0 0 0 0 1 1 1 1 1 1 1 2 2 2 2 2 2 2 2 2 2 2 2 2
-0 -0 0 1 1 3 3 4 2 1 0 -0 -1 -2 -2 -2 -2 -2 -2 -1 -1 -1 -1 -1 -1 -1 -0 -0 -0 -0 -0 0 0 0 1 1 1 1 1 1 1 1 1 1 1 1 1 1 1
-1 -0 -0 1 0 1 2 3 -0 -1 -1 -2 -2 -3 -3 -3 -3 -3 -3 -2 -2 -2 -2 -2 -2 -1 -1 -1 -1 -1 -1 -1 -1 -0 -0 -0 0 0 1 1 1 1 1 1 1 1 1 1 1
Wind_Speed
4 1 2 3 4 6 11 8 5 4 4 2 2 3 3 3 2 1 3 3 2 5 7 7 8 9 10 11 11 11 11 12 12 12 12 12 12 12 13 13 13 13 13 14 14 15 15 15 15
2 1 2 3 7 11 9 9 9 7 3 4 3 3 3 3 1 2 2 2 3 5 6 7 8 9 10 11 11 11 11 12 12 12 12 12 12 12 12 12 13 13 13 14 14 14 15 15 15
1 1 3 4 8 12 10 7 8 5 4 4 4 2 2 1 2 1 1 3 4 5 6 7 8 10 10 11 11 11 11 11 11 12 12 12 12 12 12 12 13 13 14 14 14 14 14 14 14
2 3 3 7 13 12 10 5 4 6 4 3 4 3 2 2 1 1 2 4 5 5 6 8 8 10 11 10 11 11 11 11 11 11 12 12 12 12 12 12 13 13 13 13 14 13 14 14 14
2 4 7 11 15 11 7 5 5 6 5 4 5 3 2 2 2 2 3 4 5 5 6 8 9 10 11 11 10 11 11 11 11 11 11 12 12 12 12 12 13 13 13 13 13 13 13 13 14
4 4 9 15 15 11 8 6 6 6 5 4 4 4 2 3 3 2 3 4 5 5 6 7 8 9 10 11 10 10 10 11 11 11 11 11 12 12 12 12 12 13 13 13 13 13 13 13 13
5 6 12 14 13 12 8 5 7 8 8 6 4 4 3 3 2 3 4 4 5 5 5 6 7 8 10 10 10 9 10 10 10 10 11 11 11 12 12 12 12 12 12 13 13 13 13 13 13
4 4 9 12 13 12 6 5 3 6 6 2 3 5 3 2 3 4 5 4 4 4 4 5 5 7 8 9 9 9 9 10 10 10 10 11 12 11 11 11 12 12 12 12 13 13 13 13 13
3 7 12 13 10 8 5 6 4 1 3 2 2 1 2 5 6 6 5 4 4 3 3 4 5 5 7 8 9 9 9 9 10 10 10 10 9 9 9 10 11 12 12 12 12 12 13 12 12
5 10 14 8 7 6 6 6 5 5 5 4 3 1 3 6 7 8 7 7 6 5 3 3 4 5 6 6 7 7 6 6 7 7 8 7 7 7 8 10 10 11 11 12 12 12 11 9 8
5 9 9 7 5 5 5 5 4 6 7 6 6 5 4 6 7 8 8 8 7 6 4 3 4 4 5 5 5 5 5 5 6 6 7 7 7 6 6 6 7 8 9 8 9 8 7 7 6
7 8 7 6 4 5 5 5 4 7 6 2 3 4 6 7 7 8 8 7 6 6 5 3 4 4 5 5 5 5 5 4 5 5 6 6 5 5 5 4 5 5 5 6 6 6 7 7 7
11 9 6 5 3 4 4 5 6 7 5 1 2 4 6 6 7 7 6 6 6 5 5 4 4 4 5 5 5 5 4 4 5 5 6 6 5 5 4 4 4 5 5 5 5 6 6 6 6
6 7 7 6 6 6 6 7 7 8 4 3 3 4 4 5 6 6 6 6 6 6 5 4 4 5 6 5 5 4 4 4 4 5 5 6 5 5 4 4 4 4 4 5 5 6 6 5 6
5 6 7 8 7 5 5 9 11 9 6 5 5 4 4 4 5 6 6 7 7 6 6 6 5 5 6 5 5 5 4 4 4 4 5 6 6 6 5 4 4 4 4 5 6 6 6 5 5
4 7 9 7 6 6 7 14 9 5 7 7 6 5 4 4 5 5 5 5 6 6 6 6 5 5 6 5 5 5 5 4 4 4 4 5 5 6 5 4 4 4 4 5 5 5 5 5 4
6 9 12 9 5 5 9 12 6 4 6 7 6 6 5 4 4 4 5 5 5 6 6 6 6 6 6 6 6 5 5 4 4 4 4 5 5 6 5 4 4 4 4 4 4 5 5 5 4
9 10 11 11 4 6 10 13 8 5 6 7 7 6 5 5 5 4 4 4 4 5 6 6 6 6 6 5 5 5 4 4 4 4 4 5 5 5 5 5 5 5 4 4 4 5 5 5 5
10 10 12 11 5 7 12 14 12 8 7 8 7 7 7 6 4 3 3 3 4 5 6 6 6 6 6 5 5 4 3 3 3 4 5 5 5 5 5 5 5 4 4 4 5 5 6 4 4
10 11 13 9 5 7 10 13 12 9 9 9 9 8 7 6 4 3 3 4 4 5 6 6 7 7 6 5 5 4 4 3 3 4 4 5 5 5 4 5 4 4 4 5 5 5 4 3 2
11 12 11 9 7 6 8 12 12 9 8 7 7 7 7 6 6 5 4 4 4 5 6 6 7 7 7 6 5 5 4 3 3 3 3 4 5 5 4 5 5 4 4 4 5 5 4 4 2
9 8 10 9 8 7 7 10 11 9 8 7 7 6 6 6 5 5 4 4 4 4 4 5 6 7 7 7 7 8 6 5 4 4 4 4 4 5 5 4 5 5 4 4 4 4 3 5 3
7 7 7 8 9 9 9 9 9 5 8 8 7 6 6 5 4 4 4 4 4 4 4 5 6 7 7 7 7 7 6 5 4 4 5 5 4 4 5 5 4 4 4 4 4 4 4 3 3
4 4 5 6 7 10 11 11 9 5 7 7 6 5 4 4 4 4 4 3 3 4 4 5 6 7 7 7 7 7 7 6 6 5 5 4 3 3 4 5 5 4 4 4 4 4 4 3 3
3 3 3 4 7 9 5 8 7 3 3 4 4 3 3 3 3 3 3 3 3 4 5 6 7 7 7 7 7 6 6 6 7 6 5 5 4 4 4 5 5 4 4 4 4 4 4 4 4
4 4 5 5 6 6 6 9 4 1 2 2 2 2 2 2 3 3 3 4 4 4 5 6 6 7 7 7 7 6 6 5 5 5 5 5 4 4 5 5 5 5 5 5 4 3 4 4 4
2 3 3 4 5 6 6 6 5 1 2 2 2 2 2 3 3 2 2 3 4 4 5 6 7 6 7 7 6 6 6 6 5 5 5 4 4 4 5 5 5 5 5 5 5 4 4 4 3
2 2 2 3 4 7 7 7 5 4 3 2 1 2 2 3 3 2 2 2 2 3 3 4 5 6 6 6 6 5 5 5 4 4 5 5 5 4 5 5 5 5 5 5 5 4 4 4 4
2 2 2 3 4 5 6 4 1 4 3 3 3 3 3 3 3 3 3 2 2 1 2 3 4 4 5 5 5 5 4 4 4 4 4 4 4 5 5 6 5 5 6 6 6 5 5 5 4
3 4 4 4 5 5 6 4 2 1 2 2 3 3 3 3 3 3 3 2 2 1 1 2 3 3 4 4 4 4 4 4 4 4 4 4 5 5 5 5 6 6 6 6 6 6 6 6 6
Wind_Direction
330 316 220 209 206 223 233 222 213 193 196 193 170 184 196 202 209 106 80 115 117 147 153 154 139 129 129 126 124 119 117 117 115 112 111 109 109 108 106 105 102 100 98 96 95 92 90 87 85
310 227 197 209 224 226 230 222 215 215 173 148 167 194 197 207 15 74 116 139 144 145 151 153 139 133 130 130 127 123 120 118 116 114 113 113 112 109 106 106 104 102 99 98 97 94 92 89 87
200 224 204 206 226 230 226 213 215 200 180 184 175 200 224 201 139 131 88 148 146 143 151 149 137 134 133 132 131 127 124 121 118 116 115 115 114 112 109 107 105 103 100 98 97 95 93 92 90
195 180 207 225 228 232 238 220 192 175 185 208 194 179 170 50 71 60 117 145 143 144 151 148 140 136 134 131 132 130 127 125 122 120 118 117 116 113 111 108 106 104 102 102 100 98 96 94 92
199 205 213 228 234 232 233 232 194 193 186 181 192 203 185 106 63 84 131 143 144 143 148 149 141 136 133 130 129 130 130 128 126 124 122 119 117 116 113 110 108 106 105 105 104 102 101 97 95
187 209 224 231 233 230 229 228 213 215 206 183 192 211 186 109 97 110 134 139 134 134 133 140 137 135 132 130 126 129 129 127 126 124 122 120 118 117 114 112 110 108 107 107 105 104 101 99 97
209 211 233 238 239 234 228 216 221 221 220 213 212 210 178 143 101 127 138 131 124 121 122 127 141 141 135 131 127 123 126 125 123 120 119 117 114 113 115 113 111 110 109 109 107 104 99 98 97
229 219 233 234 237 239 225 207 220 232 234 220 217 219 207 147 135 138 137 130 122 117 121 122 129 140 145 141 131 123 122 124 121 116 112 113 112 109 110 114 112 111 111 110 109 106 101 97 95
215 226 235 230 232 233 200 208 214 218 196 196 211 267 48 121 140 140 140 140 139 132 129 129 127 129 132 136 130 125 116 117 119 116 110 114 118 117 112 106 108 110 110 108 108 106 103 101 95
207 230 237 242 237 228 201 213 205 196 208 209 207 193 113 140 155 160 167 172 170 163 150 135 129 123 125 121 128 127 122 124 128 129 127 123 117 109 108 100 101 106 109 107 104 105 107 105 102
213 233 243 243 233 224 219 224 215 212 227 228 220 200 161 163 171 180 186 188 180 169 154 138 136 132 126 121 118 119 118 115 118 120 124 125 118 112 107 108 109 113 115 113 111 113 107 103 101
221 240 246 245 226 221 228 225 221 230 243 286 242 179 161 173 186 195 196 192 179 169 163 150 138 136 133 126 120 116 118 114 112 116 119 124 118 114 110 107 112 115 120 120 118 114 109 104 103
228 238 241 243 219 217 220 229 239 246 250 260 128 149 168 183 197 205 200 189 181 176 171 160 143 143 136 127 119 112 112 116 119 120 118 121 121 122 118 111 107 109 117 122 119 115 111 105 100
229 231 241 246 240 237 232 248 246 248 240 217 179 181 193 196 204 199 197 195 192 187 181 168 156 148 138 132 127 118 114 118 116 116 119 120 120 120 120 113 110 112 118 123 123 120 113 105 99
222 238 247 246 239 232 231 253 244 243 225 220 217 213 214 218 212 209 208 206 200 192 183 175 165 151 144 141 135 124 118 116 110 114 122 122 122 123 120 116 113 111 120 123 123 118 112 105 101
219 229 243 237 226 224 222 251 244 223 217 228 229 227 225 230 228 226 221 213 203 191 181 175 165 156 150 141 137 128 125 119 112 115 122 123 125 126 123 117 113 118 122 121 125 128 127 120 111
221 238 246 246 219 221 222 249 247 214 213 229 234 235 234 239 239 236 229 217 204 194 184 175 170 163 156 146 137 130 124 116 113 115 119 124 126 130 127 118 117 128 123 118 119 123 125 121 107
240 244 248 248 236 231 237 246 245 227 228 239 242 240 237 240 240 233 225 215 203 193 186 176 171 168 160 152 138 125 120 119 118 121 122 126 128 135 127 120 123 129 125 124 124 119 114 115 111
257 254 255 259 257 246 246 251 253 246 240 244 243 240 239 239 244 233 215 200 193 187 185 179 172 171 167 167 163 153 158 150 141 133 129 130 127 132 127 123 126 128 134 134 133 127 117 108 115
250 253 260 264 258 252 258 260 258 246 242 245 246 245 244 244 239 226 209 191 191 190 188 183 179 174 176 177 173 169 165 160 149 133 125 128 132 132 130 131 131 134 135 134 133 131 133 120 123
252 253 259 264 271 248 267 262 247 243 243 251 252 250 249 243 234 223 211 197 189 190 189 187 181 178 177 171 159 146 144 148 154 155 146 141 135 134 134 140 137 139 141 144 145 148 145 151 137
261 267 265 259 253 251 243 264 249 243 242 249 256 254 253 248 241 231 222 213 202 200 190 186 179 178 176 173 167 163 167 169 177 173 158 144 143 138 133 138 142 144 142 150 155 153 153 157 157
268 278 264 255 251 255 243 249 259 239 249 254 258 258 257 253 241 232 226 221 214 204 192 185 178 176 175 173 171 173 175 172 164 163 155 153 150 149 143 140 143 145 145 155 154 153 154 162 164
274 273 263 248 243 246 238 234 257 235 249 258 258 265 271 262 249 237 230 221 210 196 189 185 179 177 175 172 174 178 177 171 162 163 164 163 161 157 155 153 151 151 149 156 161 161 160 160 160
284 263 254 237 230 242 225 235 250 276 272 260 263 278 288 273 257 245 228 218 212 199 191 188 181 179 177 175 178 184 184 178 173 172 174 173 172 173 178 169 167 164 161 162 161 162 169 167 165
262 250 240 251 251 258 229 234 239 354 327 318 306 307 325 312 287 263 239 217 210 205 199 193 187 183 181 181 182 183 185 188 184 179 176 181 185 183 178 177 175 172 166 165 166 164 171 173 178
260 249 274 264 272 266 246 245 248 265 336 343 327 325 326 330 318 284 260 228 217 211 206 200 190 188 188 188 185 185 183 186 185 182 183 186 186 180 175 176 179 180 177 175 174 178 181 180 184
285 251 243 239 248 253 252 246 250 257 282 298 309 311 316 339 337 321 296 277 238 227 218 204 192 190 191 191 190 190 188 185 183 180 187 187 185 179 174 179 184 184 183 183 183 187 187 188 191
251 226 242 247 264 262 260 248 261 253 255 263 275 289 307 324 328 327 325 306 275 236 212 204 195 191 190 188 189 190 191 189 190 188 194 195 191 187 184 187 188 191 191 191 194 199 193 196 198
245 241 225 247 254 255 269 267 65 309 298 281 285 295 307 320 327 333 333 332 332 287 234 219 207 197 196 192 188 192 194 196 198 200 202 200 195 192 191 191 194 197 197 197 200 203 204 206 206
Height
1514 1515 1517 1520 1519 1515 1511 1509 1510 1513 1515 1518 1518 1518 1517 1517 1519 1525 1524 1522 1523 1526 1528 1530 1532 1533 1535 1536 1537 1539 1540 1541 1541 1542 1542 1543 1543 1544 1544 1545 1545 1546 1546 1546 1546 1546 1546 1547 1547
1514 1515 1519 1519 1513 1512 1508 1507 1510 1512 1515 1518 1519 1519 1519 1519 1521 1521 1521 1522 1523 1526 1528 1530 1532 1533 1535 1536 1537 1539 1540 1541 1542 1542 1543 1543 1544 1544 1545 1545 1546 1546 1547 1547 1547 1547 1547 1548 1548
1513 1515 1518 1514 1510 1505 1504 1507 1509 1514 1517 1517 1518 1519 1519 1520 1520 1520 1520 1521 1523 1526 1528 1530 1532 1533 1535 1536 1537 1539 1540 1541 1542 1542 1543 1544 1544 1545 1545 1546 1546 1547 1547 1548 1548 1548 1549 1549 1549
1513 1516 1516 1512 1506 1504 1504 1507 1511 1513 1516 1517 1518 1518 1519 1519 1519 1519 1520 1521 1523 1525 1527 1529 1531 1533 1534 1536 1537 1538 1540 1541 1542 1542 1543 1544 1544 1545 1546 1546 1547 1547 1548 1548 1549 1549 1550 1550 1550
1513 1514 1511 1507 1503 1504 1507 1510 1512 1511 1513 1516 1517 1516 1518 1518 1517 1518 1519 1521 1522 1525 1527 1529 1531 1532 1534 1535 1537 1538 1539 1541 1542 1542 1543 1544 1545 1545 1546 1547 1547 1548 1548 1549 1550 1550 1550 1551 1551
1513 1510 1506 1501 1500 1504 1508 1511 1512 1511 1513 1515 1516 1516 1517 1516 1516 1517 1518 1520 1522 1524 1526 1528 1530 1532 1533 1535 1536 1538 1539 1540 1541 1542 1543 1544 1545 1545 1546 1547 1548 1548 1549 1550 1550 1551 1551 1552 1552
1510 1507 1501 1498 1499 1501 1507 1511 1511 1510 1511 1513 1514 1515 1515 1515 1515 1516 1518 1519 1521 1523 1525 1527 1529 1531 1532 1534 1535 1537 1538 1540 1541 1542 1543 1544 1545 1546 1546 1547 1548 1549 1549 1550 1551 1551 1552 1552 1553
1508 1506 1501 1499 1499 1500 1506 1509 1510 1510 1510 1513 1514 1513 1513 1514 1514 1515 1517 1519 1521 1522 1524 1525 1527 1529 1531 1533 1534 1536 1537 1539 1540 1542 1543 1544 1545 1545 1546 1547 1548 1549 1550 1550 1551 1552 1552 1553 1553
1507 1506 1497 1496 1498 1500 1505 1507 1509 1509 1510 1510 1511 1512 1512 1512 1513 1514 1516 1518 1519 1521 1522 1524 1525 1527 1529 1531 1533 1534 1536 1538 1540 1541 1542 1543 1544 1545 1546 1547 1548 1549 1550 1551 1551 1552 1552 1553 1554
1505 1499 1494 1498 1499 1501 1504 1505 1507 1508 1508 1509 1510 1509 1510 1510 1512 1513 1514 1515 1516 1518 1520 1522 1524 1525 1527 1529 1531 1533 1535 1536 1538 1540 1541 1542 1543 1544 1545 1546 1547 1548 1549 1550 1551 1552 1553 1554 1554
1501 1496 1497 1500 1502 1503 1503 1504 1506 1505 1505 1507 1508 1507 1508 1509 1510 1511 1512 1513 1514 1516 1518 1519 1521 1523 1525 1527 1528 1530 1532 1534 1536 1538 1539 1541 1542 1543 1544 1545 1547 1548 1549 1550 1551 1552 1553 1553 1554
1499 1499 1500 1501 1502 1503 1503 1503 1504 1504 1505 1506 1506 1506 1506 1507 1507 1508 1510 1511 1513 1514 1515 1517 1519 1521 1523 1525 1526 1528 1530 1532 1534 1536 1537 1539 1540 1542 1543 1544 1546 1547 1548 1549 1550 1551 1552 1553 1554
1497 1498 1500 1501 1502 1503 1503 1503 1502 1502 1504 1505 1504 1504 1504 1505 1505 1507 1509 1510 1511 1512 1513 1514 1517 1519 1520 1522 1524 1526 1527 1530 1532 1534 1535 1537 1539 1540 1542 1543 1544 1546 1547 1548 1549 1550 1552 1553 1554
1496 1498 1499 1500 1501 1502 1502 1501 1501 1500 1502 1502 1502 1502 1502 1503 1503 1504 1505 1506 1508 1509 1510 1512 1514 1516 1518 1520 1522 1523 1525 1528 1530 1531 1533 1535 1537 1538 1540 1542 1543 1544 1546 1547 1548 1549 1551 1552 1553
1498 1497 1496 1497 1498 1499 1501 1497 1497 1499 1500 1500 1500 1500 1500 1500 1501 1501 1502 1503 1505 1506 1508 1509 1511 1513 1515 1517 1519 1521 1523 1525 1527 1529 1530 1533 1535 1536 1538 1540 1541 1543 1544 1546 1547 1548 1550 1551 1552
1495 1493 1489 1491 1495 1497 1499 1488 1492 1496 1498 1498 1498 1498 1498 1498 1498 1499 1499 1501 1502 1504 1505 1506 1509 1510 1512 1514 1517 1519 1521 1523 1524 1526 1528 1530 1532 1534 1536 1538 1539 1541 1543 1544 1545 1547 1548 1550 1551
1489 1485 1483 1487 1492 1494 1493 1486 1490 1494 1495 1495 1496 1496 1495 1495 1495 1496 1496 1498 1499 1500 1501 1503 1505 1507 1509 1512 1514 1516 1518 1520 1522 1524 1526 1527 1530 1532 1534 1536 1537 1539 1541 1542 1544 1545 1547 1548 1550
1483 1481 1482 1483 1489 1492 1490 1486 1489 1493 1493 1493 1493 1493 1493 1492 1492 1493 1493 1494 1496 1497 1499 1500 1502 1504 1506 1509 1511 1513 1515 1517 1519 1521 1523 1525 1527 1529 1531 1533 1535 1537 1539 1540 1542 1544 1545 1547 1548
1486 1484 1482 1483 1489 1491 1487 1485 1486 1490 1491 1490 1489 1490 1490 1490 1490 1490 1491 1491 1493 1494 1495 1496 1498 1500 1503 1505 1507 1509 1512 1514 1516 1519 1521 1522 1524 1526 1529 1531 1533 1535 1536 1538 1540 1542 1543 1545 1547
1488 1486 1484 1485 1490 1490 1486 1483 1483 1485 1487 1487 1487 1486 1487 1487 1487 1487 1488 1488 1489 1491 1492 1493 1494 1497 1499 1502 1504 1507 1508 1510 1513 1516 1517 1520 1522 1524 1526 1528 1530 1532 1534 1536 1537 1539 1541 1543 1545
1488 1486 1485 1487 1488 1489 1487 1477 1478 1480 1483 1484 1484 1484 1484 1484 1484 1484 1484 1485 1486 1487 1488 1490 1491 1493 1496 1498 1501 1503 1505 1508 1510 1512 1514 1517 1519 1522 1524 1526 1528 1529 1531 1533 1535 1537 1539 1541 1542
1485 1488 1488 1489 1486 1481 1483 1470 1468 1474 1477 1479 1480 1481 1481 1481 1482 1482 1482 1482 1483 1484 1486 1487 1489 1491 1493 1495 1497 1499 1501 1503 1506 1509 1511 1514 1517 1519 1521 1524 1525 1527 1529 1531 1533 1534 1537 1539 1540
1489 1490 1489 1487 1485 1482 1481 1478 1462 1472 1473 1474 1477 1478 1478 1478 1479 1478 1478 1479 1480 1482 1483 1485 1486 1488 1490 1492 1494 1496 1498 1501 1504 1506 1508 1512 1514 1517 1519 1521 1523 1525 1526 1529 1530 1532 1534 1536 1538
1492 1490 1488 1486 1482 1477 1475 1473 1460 1469 1471 1472 1474 1476 1476 1476 1476 1476 1476 1477 1478 1479 1480 1482 1483 1485 1486 1488 1490 1493 1496 1498 1501 1503 1505 1508 1511 1513 1515 1518 1520 1522 1524 1526 1528 1529 1531 1533 1534
1492 1488 1481 1475 1471 1464 1475 1473 1466 1471 1474 1474 1474 1474 1474 1474 1473 1473 1473 1474 1475 1476 1477 1479 1480 1481 1483 1485 1487 1490 1493 1495 1497 1499 1502 1505 1507 1509 1512 1515 1517 1519 1521 1523 1525 1527 1528 1530 1531
1491 1489 1482 1473 1464 1460 1474 1467 1467 1475 1476 1475 1475 1474 1474 1473 1472 1471 1471 1471 1472 1473 1474 1476 1476 1477 1479 1482 1485 1488 1490 1492 1494 1496 1498 1501 1503 1506 1509 1511 1513 1516 1518 1520 1522 1524 1525 1527 1528
1491 1488 1491 1486 1483 1476 1463 1466 1469 1473 1474 1475 1474 1473 1473 1472 1471 1470 1470 1470 1470 1470 1471 1472 1473 1475 1477 1479 1482 1484 1486 1488 1490 1493 1495 1498 1500 1502 1505 1507 1510 1512 1514 1516 1518 1520 1522 1523 1525
1495 1493 1491 1485 1476 1464 1460 1462 1461 1469 1472 1473 1473 1472 1472 1471 1471 1469 1469 1468 1468 1469 1469 1470 1471 1473 1475 1476 1479 1481 1483 1485 1487 1489 1491 1494 1496 1499 1501 1503 1506 1508 1510 1512 1514 1516 1518 1519 1521
1495 1495 1491 1486 1484 1470 1460 1459 1468 1470 1471 1472 1473 1472 1471 1470 1469 1468 1467 1467 1467 1467 1467 1468 1469 1471 1472 1473 1475 1477 1479 1481 1483 1485 1487 1490 1492 1494 1496 1499 1501 1503 1505 1508 1510 1512 1513 1515 1516
1495 1493 1492 1487 1484 1482 1469 1466 1472 1472 1472 1472 1472 1472 1471 1470 1469 1467 1466 1466 1465 1465 1465 1466 1467 1468 1469 1470 1472 1473 1475 1477 1479 1481 1483 1486 1488 1490 1492 1495 1497 1499 1501 1503 1505 1507 1508 1510 1511